Location: Kruen
(47.5000°N, 11.5000°E)
Time: 14:34:06
(UTC+01:00)

BlueWalker 3 - Pass Details

Date: 21 February 2026
Orbit: 451 x 457 km, 53.2° (Epoch: 14 March)

Event Time Altitude Azimuth Distance (km) Brightness Sun altitude
Rises 06:25:52 0° 191° (S) 2,459 5.4 -8.1°
Reaches altitude 10° 06:28:43 10° 166° (SSE) 1,589 4.8 -7.6°
Maximum altitude 06:30:44 15° 132° (SE) 1,338 5.0 -7.2°
Drops below altitude 10° 06:32:46 10° 97° (E) 1,594 6.3 -6.9°
Sets 06:35:38 0° 72° (ENE) 2,471 6.8 -6.4°
